Location: ??
(35.5052°N, 139.7262°E)
Time: 18:20:23
(UTC+00:00)

MOZ.5/SAFIR/RUBIN 5/SL-8 - Pass Details

Date: 20 June 2021
Orbit: 677 x 706 km, 98.1° (Epoch: 29 July)

Event Time Altitude Azimuth Distance (km) Brightness Sun altitude
Exits shadow 16:25:57 50° 304° (NW) 890 4.3 -26.2°
Drops below altitude 10° 16:29:46 10° 340° (NNW) 2,173 6.8 -25.8°
Sets 16:32:04 0° 344° (NNW) 3,098 7.8 -25.6°
